Details for AirAsia Indonesia at WADD




Go Back


Latest METAR
Local Time

WADD 221030Z 10008KT 9999 FEW017 27/24 Q1012 NOSIG
22/09/2018, 18:48:40

Description
Results
AirAsia Indonesia Logo
Number of Pilots based at WADD
0 Pilots Based here
Number of AirAsia Indonesia Flights Departed from WADD
0 Flights Departed
Number of AirAsia Indonesia Flights Arrived at WADD
0 Flights Arrived
Number of AirAsia Indonesia Schedules Departing from WADD
16 Schedules
Number of AirAsia Indonesia Schedules Arriving at WADD
16 Schedules
Number of AirAsia Indonesia Schedules Departing from WADD availible today
15 Schedules Today
Number of AirAsia Indonesia Schedules Arriving at WADD availible today
15 Schedules Today
Average Landing Rate at WADD
0 fpm
AirAsia Indonesia Average Landing Rate at WADD
0 fpm
Total Fuel Purchased at WADD by AirAsia Indonesia
0.00 kgs / 0.00 lbs

Pilots Based at WADD


Pilot ID
Pilot Name
Pilot Rank
No. of Flights
No. of Flying Hours
There are no pilots assigned to this hub!   Will you be the first?
Content